START_TIME,STEP,MOV.,M15,t_acc.,M20,t_acc.
1979-07-13 15:10:20.220 ,2,0,0.,24.0,0.,24.0
1979-07-13 15:10:44.220 ,1,1,0.,24.0,0.,24.0
1979-07-13 15:11:08.220 ,1,0,0.,24.0,0.,24.0
1979-07-13 15:11:32.220 ,0,1,0.,24.0,0.,24.0
1979-07-13 15:11:56.220 ,0,0,0.,24.0,0.,24.0
1979-07-13 15:12:20.220 ,0,1,0.,24.0,0.,24.0
1979-07-13 15:12:44.220 ,0,0,0.,24.0,0.,24.0
1979-07-13 15:13:08.220 ,1,1,0.,24.0,0.,24.0
1979-07-13 15:13:32.220 ,1,0,0.,24.0,0.,24.0
1979-07-13 15:13:56.220 ,2,1,0.,24.0,0.,24.0
1979-07-13 15:14:20.220 ,2,0,0.,24.0,0.,24.0
1979-07-13 15:14:44.220 ,3,1,0.,24.0,0.,24.0
1979-07-13 15:15:08.220 ,3,0,0.,24.0,0.,24.0
1979-07-13 15:15:32.220 ,4,1,0.,24.0,0.,24.0
1979-07-13 15:15:56.220 ,4,0,0.,24.0,0.,24.0
1979-07-13 15:16:20.220 ,5,1,0.,24.0,0.,24.0
1979-07-13 15:16:44.220 ,5,0,0.,24.0,0.,24.0
1979-07-13 15:17:08.220 ,6,1,0.,24.0,0.,24.0
1979-07-13 15:17:32.220 ,6,0,0.,24.0,0.,24.0
1979-07-13 15:17:56.220 ,7,1,0.,24.0,0.,24.0
1979-07-13 15:18:20.220 ,7,0,0.,24.0,0.,24.0
1979-07-13 15:18:44.220 ,7,1,0.,24.0,0.,24.0
1979-07-13 15:19:08.220 ,7,0,0.,24.0,0.,24.0
1979-07-13 15:19:32.220 ,6,1,0.,24.0,0.,24.0
1979-07-13 15:19:56.220 ,6,0,0.,24.0,0.,24.0
1979-07-13 15:20:20.220 ,5,1,0.,24.0,0.,24.0
1979-07-13 15:20:44.220 ,5,0,0.,24.0,0.,24.0
1979-07-13 15:21:08.220 ,4,1,1.,24.0,0.,24.0
1979-07-13 15:21:32.220 ,4,0,0.,24.0,0.,24.0
1979-07-13 15:21:56.220 ,3,1,0.,24.0,0.,24.0
1979-07-13 15:22:20.220 ,3,0,0.,24.0,0.,24.0
1979-07-13 15:22:44.220 ,2,1,0.,24.0,0.,24.0
1979-07-13 15:23:08.220 ,2,0,0.,24.0,0.,24.0
1979-07-13 15:23:32.220 ,1,1,0.,24.0,0.,24.0
1979-07-13 15:23:56.220 ,1,0,0.,24.0,0.,24.0
1979-07-13 15:24:20.220 ,0,1,0.,24.0,0.,24.0
1979-07-13 15:24:44.220 ,0,0,0.,24.0,0.,24.0
1979-07-13 15:25:08.220 ,0,1,0.,24.0,0.,24.0
1979-07-13 15:25:32.220 ,0,0,0.,24.0,0.,24.0
1979-07-13 15:25:56.220 ,1,1,0.,24.0,0.,24.0
1979-07-13 15:26:20.220 ,1,0,0.,24.0,0.,24.0
1979-07-13 15:26:44.220 ,2,1,0.,24.0,0.,24.0
1979-07-13 15:27:08.220 ,2,0,0.,24.0,0.,24.0
1979-07-13 15:27:32.220 ,3,1,0.,24.0,0.,24.0
1979-07-13 15:27:56.220 ,3,0,0.,24.0,0.,24.0
1979-07-13 15:28:20.220 ,4,1,0.,24.0,0.,24.0
1979-07-13 15:28:44.220 ,4,0,0.,24.0,0.,24.0
1979-07-13 15:29:08.220 ,5,1,0.,24.0,0.,24.0
1979-07-13 15:29:32.220 ,5,0,0.,24.0,0.,24.0
1979-07-13 15:29:56.220 ,6,1,0.,24.0,0.,24.0
1979-07-13 15:30:20.220 ,6,0,0.,24.0,0.,24.0
1979-07-13 15:30:44.220 ,7,0,0.,24.0,0.,24.0
1979-07-13 15:31:08.220 ,7,0,0.,24.0,0.,24.0
1979-07-13 15:31:32.220 ,3,1,1.,24.0,0.,24.0
1979-07-13 15:31:56.220 ,0,1,0.,24.0,0.,24.0
1979-07-13 15:32:20.220 ,4,1,0.,24.0,0.,24.0
1979-07-13 15:32:44.220 ,7,1,1.,24.0,0.,24.0
1979-07-13 15:33:08.220 ,3,1,0.,24.0,0.,24.0
1979-07-13 15:33:32.220 ,0,1,0.,24.0,0.,24.0
1979-07-13 15:33:56.220 ,4,1,0.,24.0,0.,24.0
1979-07-13 15:34:20.220 ,7,1,0.,24.0,0.,24.0
1979-07-13 15:34:44.220 ,0,0,,0,,0
1979-07-13 15:35:08.220 ,0,0,0.,24.0,0.,24.0
1979-07-13 15:35:32.220 ,4,1,0.,24.0,0.,24.0
1979-07-13 15:35:56.220 ,7,1,0.,24.0,0.,24.0
1979-07-13 15:36:20.220 ,3,1,0.,24.0,0.,24.0
1979-07-13 15:36:44.220 ,0,1,0.,24.0,0.,24.0
1979-07-13 15:37:08.220 ,4,1,0.,24.0,0.,24.0
1979-07-13 15:37:32.220 ,7,1,0.,24.0,0.,24.0
1979-07-13 15:37:56.220 ,3,1,0.,24.0,0.,24.0
1979-07-13 15:38:20.220 ,0,1,0.,24.0,0.,24.0
1979-07-13 15:38:44.220 ,4,1,0.,24.0,0.,24.0
1979-07-13 15:39:08.220 ,7,1,0.,24.0,0.,24.0
1979-07-13 15:39:32.220 ,3,1,0.,24.0,0.,24.0
1979-07-13 15:39:56.220 ,0,1,1.,24.0,0.,24.0
1979-07-13 15:40:20.220 ,4,1,0.,24.0,0.,24.0
1979-07-13 15:40:44.220 ,7,1,0.,24.0,0.,24.0
1979-07-13 15:41:08.220 ,3,1,0.,24.0,0.,24.0
1979-07-13 15:41:32.220 ,0,1,0.,24.0,0.,24.0
1979-07-13 15:41:56.220 ,0,0,0.,24.0,0.,24.0
1979-07-13 15:42:20.220 ,0,0,0.,24.0,0.,24.0
1979-07-13 15:42:44.220 ,5,1,0.,24.0,0.,24.0
1979-07-13 15:43:08.220 ,5,0,0.,24.0,0.,24.0
1979-07-13 15:43:32.220 ,4,1,0.,24.0,0.,24.0
1979-07-13 15:43:56.220 ,4,0,0.,24.0,0.,24.0
1979-07-13 15:44:20.220 ,3,1,0.,24.0,0.,24.0
1979-07-13 15:44:44.220 ,3,0,1.,24.0,0.,24.0
1979-07-13 15:45:08.220 ,2,1,0.,24.0,0.,24.0
1979-07-13 15:45:32.220 ,2,0,0.,24.0,0.,24.0
1979-07-13 15:45:56.220 ,1,1,1.,24.0,0.,24.0
1979-07-13 15:46:20.220 ,1,0,0.,24.0,0.,24.0
1979-07-13 15:46:44.220 ,0,1,0.,24.0,0.,24.0
1979-07-13 15:47:08.220 ,0,0,0.,24.0,0.,24.0
1979-07-13 15:47:32.220 ,0,1,0.,24.0,0.,24.0
1979-07-13 15:47:56.220 ,0,0,0.,24.0,0.,24.0
1979-07-13 15:48:20.220 ,1,1,0.,24.0,0.,24.0
1979-07-13 15:48:44.220 ,1,0,0.,24.0,0.,24.0
1979-07-13 15:49:08.220 ,2,1,0.,24.0,0.,24.0
1979-07-13 15:49:32.220 ,2,0,0.,24.0,0.,24.0
1979-07-13 15:49:56.220 ,3,1,0.,24.0,0.,24.0
1979-07-13 15:50:20.220 ,3,0,1.,24.0,0.,24.0
1979-07-13 15:50:44.220 ,4,1,0.,24.0,0.,24.0
1979-07-13 15:51:08.220 ,4,0,0.,24.0,0.,24.0
1979-07-13 15:51:32.220 ,5,1,0.,24.0,0.,24.0
1979-07-13 15:51:56.220 ,5,0,0.,24.0,0.,24.0
1979-07-13 15:52:20.220 ,6,1,1.,24.0,0.,24.0
1979-07-13 15:52:44.220 ,6,0,0.,24.0,0.,24.0
1979-07-13 15:53:08.220 ,7,1,0.,24.0,0.,24.0
1979-07-13 15:53:32.220 ,7,0,0.,24.0,0.,24.0
1979-07-13 15:53:56.220 ,7,1,0.,24.0,0.,24.0
1979-07-13 15:54:20.220 ,7,0,0.,24.0,0.,24.0
1979-07-13 15:54:44.220 ,6,1,0.,24.0,0.,24.0
1979-07-13 15:55:08.220 ,6,0,1.,24.0,0.,24.0
1979-07-13 15:55:32.220 ,5,1,0.,24.0,0.,24.0
1979-07-13 15:55:56.220 ,5,0,1.,24.0,0.,24.0
1979-07-13 15:56:20.220 ,4,1,0.,24.0,0.,24.0
1979-07-13 15:56:44.220 ,4,0,0.,24.0,0.,24.0
1979-07-13 15:57:08.220 ,3,1,0.,24.0,0.,24.0
1979-07-13 15:57:32.220 ,3,0,0.,24.0,0.,24.0
1979-07-13 15:57:56.220 ,2,1,0.,24.0,0.,24.0
1979-07-13 15:58:20.220 ,2,0,0.,24.0,0.,24.0
1979-07-13 15:58:44.220 ,1,1,0.,24.0,0.,24.0
1979-07-13 15:59:08.220 ,1,0,0.,24.0,0.,24.0
1979-07-13 15:59:32.220 ,0,1,0.,24.0,0.,24.0
1979-07-13 15:59:56.220 ,0,0,0.,24.0,0.,24.0
1979-07-13 16:00:20.220 ,0,1,0.,24.0,0.,24.0
1979-07-13 16:00:44.220 ,0,0,1.,24.0,0.,24.0
1979-07-13 16:01:08.220 ,1,1,0.,24.0,0.,24.0
1979-07-13 16:01:32.220 ,1,0,0.,24.0,0.,24.0
1979-07-13 16:01:56.220 ,2,1,0.,24.0,0.,24.0
1979-07-13 16:02:20.220 ,2,0,0.,24.0,0.,24.0
1979-07-13 16:02:44.220 ,3,1,0.,24.0,0.,24.0
1979-07-13 16:03:08.220 ,3,0,0.,24.0,0.,24.0
1979-07-13 16:03:32.220 ,4,1,0.,24.0,0.,24.0
1979-07-13 16:03:56.220 ,4,0,0.,24.0,0.,24.0
1979-07-13 16:04:20.220 ,5,1,0.,24.0,0.,24.0
1979-07-13 16:04:44.220 ,5,0,0.,24.0,0.,24.0
1979-07-13 16:05:08.220 ,6,1,0.,24.0,0.,24.0
1979-07-13 16:05:32.220 ,6,0,0.,24.0,0.,24.0
1979-07-13 16:05:56.220 ,7,1,0.,24.0,0.,24.0
1979-07-13 16:06:20.220 ,7,0,0.,24.0,0.,24.0
1979-07-13 16:06:44.220 ,7,1,0.,24.0,0.,24.0
1979-07-13 16:07:08.220 ,7,0,0.,24.0,0.,24.0
1979-07-13 16:07:32.220 ,6,1,0.,24.0,0.,24.0
1979-07-13 16:07:56.220 ,6,0,0.,24.0,0.,24.0
1979-07-13 16:09:08.220 ,0,0,0.,24.0,0.,24.0
1979-07-13 16:09:32.220 ,0,0,0.,24.0,0.,24.0
1979-07-13 16:09:56.220 ,3,1,0.,24.0,0.,24.0
1979-07-13 16:10:20.220 ,3,0,0.,24.0,0.,24.0
1979-07-13 16:10:44.220 ,2,1,0.,24.0,0.,24.0
1979-07-13 16:11:08.220 ,2,0,0.,24.0,0.,24.0
1979-07-13 16:11:32.220 ,1,1,0.,24.0,0.,24.0
1979-07-13 16:11:56.220 ,1,0,0.,24.0,0.,24.0
1979-07-13 16:12:20.220 ,0,1,0.,24.0,0.,24.0
1979-07-13 16:12:44.220 ,0,0,0.,24.0,0.,24.0
1979-07-13 16:13:08.220 ,0,1,0.,24.0,0.,24.0
1979-07-13 16:13:32.220 ,0,0,0.,24.0,0.,24.0
1979-07-13 16:13:56.220 ,1,1,0.,24.0,0.,24.0
1979-07-13 16:14:20.220 ,1,0,0.,24.0,0.,24.0
1979-07-13 16:14:44.220 ,2,1,1.,24.0,0.,24.0
1979-07-13 16:15:08.220 ,2,0,0.,24.0,0.,24.0
1979-07-13 16:15:32.220 ,3,1,0.,24.0,0.,24.0
1979-07-13 16:15:56.220 ,3,0,0.,24.0,0.,24.0
1979-07-13 16:16:20.220 ,4,1,0.,24.0,0.,24.0
1979-07-13 16:16:44.220 ,4,0,0.,24.0,0.,24.0
1979-07-13 16:17:08.220 ,5,1,0.,24.0,0.,24.0
1979-07-13 16:17:32.220 ,5,0,0.,24.0,0.,24.0
1979-07-13 16:17:56.220 ,6,1,0.,24.0,0.,24.0
1979-07-13 16:18:20.220 ,6,0,0.,24.0,0.,24.0
1979-07-13 16:18:44.220 ,7,0,0.,24.0,0.,24.0
1979-07-13 16:19:08.220 ,7,0,0.,24.0,0.,24.0
1979-07-13 16:20:20.220 ,0,0,0.,24.0,0.,24.0
1979-07-13 16:20:44.220 ,7,1,0.,24.0,0.,24.0
1979-07-13 16:21:08.220 ,3,1,0.,24.0,0.,24.0
1979-07-13 16:21:32.220 ,0,1,1.,24.0,0.,24.0
1979-07-13 16:21:56.220 ,4,1,0.,24.0,0.,24.0
1979-07-13 16:22:20.220 ,7,1,0.,24.0,0.,24.0
1979-07-13 16:22:44.220 ,3,1,0.,24.0,0.,24.0
1979-07-13 16:23:08.220 ,0,1,0.,24.0,0.,24.0
1979-07-13 16:23:32.220 ,4,1,1.,24.0,0.,24.0
1979-07-13 16:23:56.220 ,7,1,0.,24.0,0.,24.0
1979-07-13 16:24:20.220 ,3,1,0.,24.0,0.,24.0
1979-07-13 16:24:44.220 ,0,1,0.,24.0,0.,24.0
1979-07-13 16:25:08.220 ,4,1,0.,24.0,0.,24.0
1979-07-13 16:25:32.220 ,7,1,0.,24.0,0.,24.0
1979-07-13 16:25:56.220 ,3,1,0.,24.0,0.,24.0
1979-07-13 16:26:20.220 ,0,1,0.,24.0,0.,24.0
1979-07-13 16:26:44.220 ,4,1,0.,24.0,0.,24.0
1979-07-13 16:27:08.220 ,7,1,0.,24.0,0.,24.0
1979-07-13 16:27:32.220 ,3,1,0.,24.0,0.,24.0
1979-07-13 16:27:56.220 ,0,1,0.,24.0,0.,24.0
1979-07-13 16:28:20.220 ,4,1,0.,24.0,0.,24.0
1979-07-13 16:28:44.220 ,7,1,0.,24.0,0.,24.0
1979-07-13 16:29:08.220 ,3,1,0.,24.0,0.,24.0
1979-07-13 16:29:32.220 ,0,1,0.,24.0,0.,24.0
1979-07-13 16:29:56.220 ,0,0,0.,24.0,0.,24.0
1979-07-13 16:30:20.220 ,0,0,0.,24.0,0.,24.0
1979-07-13 16:30:44.220 ,5,1,0.,24.0,0.,24.0
1979-07-13 16:31:08.220 ,5,0,0.,24.0,0.,24.0
1979-07-13 16:32:20.220 ,0,0,0.,24.0,0.,24.0
1979-07-13 16:32:44.220 ,0,0,0.,24.0,0.,24.0
1979-07-13 16:33:08.220 ,2,1,0.,24.0,0.,24.0
1979-07-13 16:33:32.220 ,2,0,0.,24.0,0.,24.0
1979-07-13 16:34:44.220 ,0,0,0.,24.0,0.,24.0
1979-07-13 16:35:08.220 ,0,0,0.,24.0,0.,24.0
1979-07-13 16:35:32.220 ,0,1,0.,24.0,0.,24.0
1979-07-13 16:35:56.220 ,0,0,0.,24.0,0.,24.0
1979-07-13 16:36:20.220 ,1,1,0.,24.0,0.,24.0
1979-07-13 16:36:44.220 ,1,0,0.,24.0,0.,24.0
1979-07-13 16:37:56.220 ,0,0,0.,24.0,0.,24.0
1979-07-13 16:38:20.220 ,0,0,0.,24.0,0.,24.0
1979-07-13 16:38:44.220 ,4,1,0.,24.0,0.,24.0
1979-07-13 16:39:08.220 ,4,0,0.,24.0,0.,24.0
1979-07-13 16:39:32.220 ,5,1,0.,24.0,0.,24.0
1979-07-13 16:39:56.220 ,5,0,0.,24.0,0.,24.0
1979-07-13 16:40:20.220 ,6,1,0.,24.0,0.,24.0
1979-07-13 16:40:44.220 ,6,0,0.,24.0,0.,24.0
1979-07-13 16:41:08.220 ,7,1,1.,24.0,0.,24.0
1979-07-13 16:41:32.220 ,7,0,0.,24.0,0.,24.0
1979-07-13 16:41:56.220 ,7,1,0.,24.0,0.,24.0
1979-07-13 16:42:20.220 ,7,0,1.,24.0,0.,24.0
1979-07-13 16:42:44.220 ,6,1,0.,24.0,0.,24.0
1979-07-13 16:43:08.220 ,6,0,0.,24.0,0.,24.0
1979-07-13 16:43:32.220 ,5,1,0.,24.0,0.,24.0
1979-07-13 16:43:56.220 ,5,0,0.,24.0,0.,24.0
1979-07-13 16:44:20.220 ,4,1,0.,24.0,0.,24.0
1979-07-13 16:44:44.220 ,4,0,0.,24.0,0.,24.0
1979-07-13 16:45:08.220 ,3,1,0.,24.0,0.,24.0
1979-07-13 16:45:32.220 ,3,0,0.,24.0,0.,24.0
1979-07-13 16:45:56.220 ,2,1,0.,24.0,0.,24.0
1979-07-13 16:46:20.220 ,2,0,0.,24.0,0.,24.0
1979-07-13 16:46:44.220 ,1,1,0.,24.0,0.,24.0
1979-07-13 16:47:08.220 ,1,0,0.,24.0,0.,24.0
1979-07-13 16:47:32.220 ,0,1,0.,24.0,0.,24.0
1979-07-13 16:47:56.220 ,0,0,0.,24.0,0.,24.0
1979-07-13 16:48:20.220 ,0,1,0.,24.0,0.,24.0
1979-07-13 16:48:44.220 ,0,0,0.,24.0,0.,24.0
1979-07-13 16:49:08.220 ,1,1,0.,24.0,0.,24.0
1979-07-13 16:49:32.220 ,1,0,0.,24.0,0.,24.0
1979-07-13 16:49:56.220 ,2,1,0.,24.0,0.,24.0
1979-07-13 16:50:20.220 ,2,0,0.,24.0,0.,24.0
1979-07-13 16:50:44.220 ,3,1,0.,24.0,0.,24.0
1979-07-13 16:51:08.220 ,3,0,0.,24.0,0.,24.0
1979-07-13 16:51:32.220 ,4,1,0.,24.0,0.,24.0
1979-07-13 16:51:56.220 ,4,0,0.,24.0,0.,24.0
1979-07-13 16:52:20.220 ,5,1,0.,24.0,0.,24.0
1979-07-13 16:52:44.220 ,5,0,0.,24.0,0.,24.0
1979-07-13 16:53:08.220 ,6,1,0.,24.0,0.,24.0
1979-07-13 16:53:32.220 ,6,0,0.,24.0,0.,24.0
1979-07-13 16:53:56.220 ,7,1,1.,24.0,0.,24.0
1979-07-13 16:54:20.220 ,7,0,0.,24.0,0.,24.0
1979-07-13 16:54:44.220 ,7,1,0.,24.0,0.,24.0
1979-07-13 16:55:08.220 ,7,0,0.,24.0,0.,24.0
1979-07-13 16:56:20.220 ,0,0,0.,24.0,0.,24.0
1979-07-13 16:56:44.220 ,0,0,0.,24.0,0.,24.0
1979-07-13 16:56:44.220 ,0,0,0.,24.0,0.,24.0
1979-07-13 16:57:08.220 ,4,1,0.,24.0,0.,24.0
1979-07-13 16:57:32.220 ,4,0,0.,24.0,0.,24.0
1979-07-13 16:57:56.220 ,3,1,0.,24.0,0.,24.0
1979-07-13 16:58:20.220 ,3,0,0.,24.0,0.,24.0
1979-07-13 16:58:44.220 ,2,1,0.,24.0,0.,24.0
1979-07-13 16:59:08.220 ,2,0,1.,24.0,0.,24.0
1979-07-13 16:59:32.220 ,1,1,0.,24.0,0.,24.0
1979-07-13 16:59:56.220 ,1,0,1.,24.0,0.,24.0
1979-07-13 17:00:20.220 ,0,1,0.,24.0,0.,24.0
1979-07-13 17:00:44.220 ,0,0,0.,24.0,0.,24.0
1979-07-13 17:01:08.220 ,0,1,0.,24.0,0.,24.0
1979-07-13 17:01:32.220 ,0,0,0.,24.0,0.,24.0
1979-07-13 17:01:56.220 ,1,1,1.,24.0,0.,24.0
1979-07-13 17:02:20.220 ,1,0,0.,24.0,0.,24.0
1979-07-13 17:02:44.220 ,2,1,0.,24.0,0.,24.0
1979-07-13 17:03:08.220 ,2,0,0.,24.0,0.,24.0
1979-07-13 17:03:32.220 ,3,1,0.,24.0,0.,24.0
1979-07-13 17:03:56.220 ,3,0,0.,24.0,0.,24.0
1979-07-13 17:04:20.220 ,4,1,0.,24.0,0.,24.0
1979-07-13 17:04:44.220 ,4,0,0.,24.0,0.,24.0
1979-07-13 17:05:08.220 ,5,1,0.,24.0,0.,24.0
1979-07-13 17:05:32.220 ,5,0,0.,24.0,0.,24.0
1979-07-13 17:05:56.220 ,6,1,0.,24.0,0.,24.0
1979-07-13 17:06:20.220 ,6,0,0.,24.0,0.,24.0
1979-07-13 17:06:44.220 ,7,0,0.,24.0,0.,24.0
1979-07-13 17:07:08.220 ,7,0,0.,24.0,0.,24.0
1979-07-13 17:07:32.220 ,3,1,0.,24.0,0.,24.0
1979-07-13 17:07:56.220 ,0,1,0.,24.0,0.,24.0
1979-07-13 17:08:20.220 ,4,1,0.,24.0,0.,24.0
1979-07-13 17:08:44.220 ,7,1,0.,24.0,0.,24.0
1979-07-13 17:09:08.220 ,3,1,1.,24.0,0.,24.0
1979-07-13 17:09:32.220 ,0,1,0.,24.0,0.,24.0
1979-07-13 17:09:56.220 ,4,1,1.,24.0,0.,24.0
1979-07-13 17:10:20.220 ,7,1,0.,24.0,0.,24.0
1979-07-13 17:10:44.220 ,3,1,0.,24.0,0.,24.0
1979-07-13 17:11:08.220 ,0,1,0.,24.0,0.,24.0
1979-07-13 17:11:32.220 ,4,1,0.,24.0,0.,24.0
1979-07-13 17:11:56.220 ,7,1,0.,24.0,0.,24.0
1979-07-13 17:12:20.220 ,3,1,0.,24.0,0.,24.0
1979-07-13 17:12:44.220 ,0,1,0.,24.0,0.,24.0
1979-07-13 17:13:08.220 ,4,1,0.,24.0,0.,24.0
1979-07-13 17:13:32.220 ,7,1,0.,24.0,0.,24.0
1979-07-13 17:13:56.220 ,3,1,0.,24.0,0.,24.0
1979-07-13 17:14:20.220 ,0,1,1.,24.0,0.,24.0
1979-07-13 17:14:44.220 ,4,1,0.,24.0,0.,24.0
1979-07-13 17:15:08.220 ,7,1,0.,24.0,0.,24.0
1979-07-13 17:15:32.220 ,3,1,0.,24.0,0.,24.0
1979-07-13 17:15:56.220 ,0,1,0.,24.0,0.,24.0
1979-07-13 17:16:20.220 ,4,1,0.,24.0,0.,24.0
1979-07-13 17:16:44.220 ,7,1,0.,24.0,0.,24.0
1979-07-13 17:17:08.220 ,3,1,0.,24.0,0.,24.0
1979-07-13 17:17:32.220 ,0,1,0.,24.0,0.,24.0
1979-07-13 17:17:56.220 ,0,0,0.,24.0,0.,24.0
1979-07-13 17:18:20.220 ,0,0,1.,24.0,0.,24.0
1979-07-13 17:18:44.220 ,5,1,0.,24.0,0.,24.0
1979-07-13 17:19:08.220 ,5,0,0.,24.0,0.,24.0
1979-07-13 17:19:32.220 ,4,1,0.,24.0,0.,24.0
1979-07-13 17:19:56.220 ,4,0,0.,24.0,0.,24.0
1979-07-13 17:20:20.220 ,3,1,0.,24.0,0.,24.0
1979-07-13 17:20:44.220 ,3,0,0.,24.0,0.,24.0
1979-07-13 17:21:08.220 ,2,1,0.,24.0,0.,24.0
1979-07-13 17:21:32.220 ,2,0,0.,24.0,0.,24.0
1979-07-13 17:21:56.220 ,1,1,0.,24.0,0.,24.0
1979-07-13 17:22:20.220 ,1,0,0.,24.0,0.,24.0
1979-07-13 17:22:44.220 ,0,1,0.,24.0,0.,24.0
1979-07-13 17:23:08.220 ,0,0,0.,24.0,0.,24.0
1979-07-13 17:23:32.220 ,0,1,0.,24.0,0.,24.0
1979-07-13 17:23:56.220 ,0,0,0.,24.0,0.,24.0
1979-07-13 17:24:20.220 ,1,1,0.,24.0,0.,24.0
1979-07-13 17:24:44.220 ,1,0,0.,24.0,0.,24.0
1979-07-13 17:25:08.220 ,2,1,0.,24.0,0.,24.0
1979-07-13 17:25:32.220 ,2,0,0.,24.0,0.,24.0
1979-07-13 17:25:56.220 ,3,1,0.,24.0,0.,24.0
1979-07-13 17:26:20.220 ,3,0,0.,24.0,0.,24.0
1979-07-13 17:26:44.220 ,4,1,0.,24.0,0.,24.0
1979-07-13 17:27:08.220 ,4,0,0.,24.0,0.,24.0
1979-07-13 17:27:32.220 ,5,1,0.,24.0,0.,24.0
1979-07-13 17:27:56.220 ,5,0,1.,24.0,0.,24.0
1979-07-13 17:28:20.220 ,6,1,0.,24.0,0.,24.0
1979-07-13 17:28:44.220 ,6,0,0.,24.0,0.,24.0
1979-07-13 17:29:08.220 ,7,1,0.,24.0,0.,24.0
1979-07-13 17:29:32.220 ,7,0,0.,24.0,0.,24.0
1979-07-13 17:29:56.220 ,7,1,0.,24.0,0.,24.0
1979-07-13 17:30:20.220 ,7,0,0.,24.0,0.,24.0
1979-07-13 17:30:44.220 ,6,1,0.,24.0,0.,24.0
1979-07-13 17:31:08.220 ,6,0,0.,24.0,0.,24.0
1979-07-13 17:31:32.220 ,5,1,0.,24.0,0.,24.0
1979-07-13 17:31:56.220 ,5,0,0.,24.0,0.,24.0
1979-07-13 17:32:20.220 ,4,1,0.,24.0,0.,24.0
1979-07-13 17:32:44.220 ,4,0,0.,24.0,0.,24.0
1979-07-13 17:33:08.220 ,3,1,0.,24.0,0.,24.0
1979-07-13 17:33:32.220 ,3,0,0.,24.0,0.,24.0
1979-07-13 17:33:56.220 ,2,1,0.,24.0,0.,24.0
1979-07-13 17:34:20.220 ,2,0,0.,24.0,0.,24.0
1979-07-13 17:34:44.220 ,1,1,0.,24.0,0.,24.0
1979-07-13 17:35:08.220 ,1,0,0.,24.0,0.,24.0
1979-07-13 17:35:32.220 ,0,1,0.,24.0,0.,24.0
1979-07-13 17:35:56.220 ,0,0,0.,24.0,0.,24.0
1979-07-13 17:36:20.220 ,0,1,0.,24.0,0.,24.0
1979-07-13 17:36:44.220 ,0,0,0.,24.0,0.,24.0
1979-07-13 17:37:08.220 ,1,1,0.,24.0,0.,24.0
1979-07-13 17:37:32.220 ,1,0,0.,24.0,0.,24.0
1979-07-13 17:37:56.220 ,2,1,0.,24.0,0.,24.0
1979-07-13 17:38:20.220 ,2,0,0.,24.0,0.,24.0
1979-07-13 17:38:44.220 ,3,1,1.,24.0,0.,24.0
1979-07-13 17:39:08.220 ,3,0,0.,24.0,0.,24.0
1979-07-13 17:39:32.220 ,4,1,0.,24.0,0.,24.0
1979-07-13 17:39:56.220 ,4,0,0.,24.0,0.,24.0
1979-07-13 17:40:20.220 ,5,1,0.,24.0,0.,24.0
1979-07-13 17:40:44.220 ,5,0,0.,24.0,0.,24.0
1979-07-13 17:41:08.220 ,6,1,1.,24.0,0.,24.0
1979-07-13 17:41:32.220 ,6,0,0.,24.0,0.,24.0
1979-07-13 17:41:56.220 ,7,1,0.,24.0,0.,24.0
1979-07-13 17:42:20.220 ,7,0,0.,24.0,0.,24.0
1979-07-13 17:42:44.220 ,7,1,0.,24.0,0.,24.0
1979-07-13 17:43:08.220 ,7,0,0.,24.0,0.,24.0
1979-07-13 17:43:32.220 ,6,1,0.,24.0,0.,24.0
1979-07-13 17:43:56.220 ,6,0,0.,24.0,0.,24.0
1979-07-13 17:44:20.220 ,5,1,0.,24.0,0.,24.0
1979-07-13 17:44:44.220 ,5,0,0.,24.0,0.,24.0
1979-07-13 17:45:08.220 ,4,1,0.,24.0,0.,24.0
1979-07-13 17:45:32.220 ,4,1,,0,,0
1979-07-13 17:45:56.220 ,3,1,0.,24.0,0.,24.0
1979-07-13 17:46:20.220 ,3,0,0.,24.0,0.,24.0
1979-07-13 17:46:44.220 ,2,1,0.,24.0,0.,24.0
1979-07-13 17:47:08.220 ,2,0,0.,24.0,0.,24.0
1979-07-13 17:47:32.220 ,1,1,0.,24.0,0.,24.0
1979-07-13 17:47:56.220 ,1,0,0.,24.0,0.,24.0
1979-07-13 17:48:20.220 ,0,1,0.,24.0,0.,24.0
1979-07-13 17:48:44.220 ,0,0,1.,24.0,0.,24.0
1979-07-13 17:49:08.220 ,0,1,0.,24.0,0.,24.0
1979-07-13 17:49:32.220 ,0,0,1.,24.0,0.,24.0
1979-07-13 17:49:56.220 ,1,1,0.,24.0,0.,24.0
1979-07-13 17:50:20.220 ,1,0,0.,24.0,0.,24.0
1979-07-13 17:50:44.220 ,2,1,0.,24.0,0.,24.0
1979-07-13 17:51:08.220 ,2,0,0.,24.0,0.,24.0
1979-07-13 17:51:32.220 ,3,1,0.,24.0,0.,24.0
1979-07-13 17:51:56.220 ,3,0,0.,24.0,0.,24.0
1979-07-13 17:52:20.220 ,4,1,0.,24.0,0.,24.0
1979-07-13 17:52:44.220 ,4,0,0.,24.0,0.,24.0
1979-07-13 17:53:08.220 ,5,1,0.,24.0,0.,24.0
1979-07-13 17:53:32.220 ,5,0,0.,24.0,0.,24.0
1979-07-13 17:53:56.220 ,6,1,0.,24.0,0.,24.0
1979-07-13 17:54:20.220 ,6,0,0.,24.0,0.,24.0
1979-07-13 17:54:44.220 ,7,0,0.,24.0,0.,24.0
1979-07-13 17:55:08.220 ,7,0,0.,24.0,0.,24.0
1979-07-13 17:55:32.220 ,3,1,0.,24.0,0.,24.0
1979-07-13 17:55:56.220 ,0,1,0.,24.0,0.,24.0
1979-07-13 17:56:20.220 ,4,1,0.,24.0,0.,24.0
1979-07-13 17:56:44.220 ,7,1,0.,24.0,0.,24.0
1979-07-13 17:57:08.220 ,3,1,0.,24.0,0.,24.0
1979-07-13 17:57:32.220 ,0,1,0.,24.0,0.,24.0
1979-07-13 17:57:56.220 ,4,1,0.,24.0,0.,24.0
1979-07-13 17:58:20.220 ,7,1,0.,24.0,0.,24.0
1979-07-13 17:58:44.220 ,3,1,0.,24.0,0.,24.0
1979-07-13 17:59:08.220 ,0,1,0.,24.0,0.,24.0
1979-07-13 17:59:32.220 ,4,1,0.,24.0,0.,24.0
1979-07-13 17:59:56.220 ,7,1,1.,24.0,0.,24.0
1979-07-13 18:00:20.220 ,3,1,0.,24.0,0.,24.0
